Location: Newark
(33.6439°N, 114.9881°W)
Time: 20:35:24
(UTC+00:00)

Tiros 1 - Pass Details

Date: 27 July 2019
Orbit: 631 x 664 km, 48.4° (Epoch: 24 August)

Event Time Altitude Azimuth Distance (km) Brightness Sun altitude
Rises 19:56:59 0° 299° (WNW) 2,988 10.5 75.3°
Reaches altitude 10° 20:00:31 10° 326° (NW) 2,080 9.8 75.2°
Maximum altitude 20:02:56 14° 357° (N) 1,846 9.5 75.0°
Drops below altitude 10° 20:05:21 10° 27° (NNE) 2,082 9.7 74.9°
Sets 20:08:54 0° 54° (NE) 2,995 10.4 74.7°
